Location: Andiroba
(19.8650°S, 43.9258°W)
Time: 00:43:24
(UTC+00:00)

BREEZE-M TANK - Pass Details

Date: 15 June 2024
Orbit: 601 x 24679 km, 45.4° (Epoch: 24 July)

Event Time Altitude Azimuth Distance (km) Brightness Sun altitude
Exits shadow 09:02:39 - 238° (WSW) 3,897 6.0 -6.4°
Reaches altitude 10° 09:04:07 10° 242° (WSW) 3,208 5.5 -6.0°
Maximum altitude 09:09:19 30° 304° (NW) 1,255 3.9 -4.9°
Drops below altitude 10° 09:12:30 10° 9° (N) 1,929 5.6 -4.2°
Sets 09:14:39 0° 22° (NNE) 2,914 6.8 -3.8°
